Language: 


Des rapports , des résumés tant et plus, au choix de chacun....


Données statistiques de la station
Quotidien Rapport Février 10, 2018 Unités:  Anglais    Métrique   les deux
« Précédent Jour
Suivant Jour »
Quotidien Hebdomadaire Mensuel Annuel Actuel
  Haut: Bas: Moyen:
Température: TemperatureC °F -0.1 °F 3.7 °F
Pt de rosée: DewpointC °F -1.0 °F 1.7 °F
Humidité: Humidity % 62 % 86 %
Vitesse du vent: WindSpeedKMH mph 0.0 mph 7.9 mph
Rafales: WindSpeedGustKMH mph - -
Vent:- - WSW
Pression: PressurehPa in 1005.0 in -
Précipitation: 5.1 in    
Historical Graphs
 
 
Données statistiques pour Février 10, 2018
Heure Température Point de rosée Pression Vent Vitesse du vent Refales Humidité Pluie (taux horaire)
TemperatureC °F DewpointC °F PressurehPa in Calm     Humidity % HourlyPrecipMM in
00:04 2.4 °F 3.0 °F 1014.1 in West 6.9 mph 6.9 mph 98 % 1.3 in
00:09 2.3 °F 3.0 °F 1014.1 in West 6.9 mph 6.9 mph 98 % 1.0 in
00:14 2.2 °F 2.0 °F 1013.1 in West 6.9 mph 6.9 mph 98 % 1.3 in
00:19 2.1 °F 2.0 °F 1013.1 in West 6.9 mph 6.9 mph 98 % 1.3 in
00:24 2.1 °F 2.0 °F 1013.1 in West 6.9 mph 6.9 mph 98 % 1.3 in
00:29 2.1 °F 2.0 °F 1013.1 in West 6.9 mph 6.9 mph 98 % 1.5 in
00:34 2.1 °F 2.0 °F 1013.1 in West 6.9 mph 6.9 mph 98 % 1.5 in
00:39 2.1 °F 2.0 °F 1013.1 in West 6.9 mph 6.9 mph 98 % 1.3 in
00:44 2.2 °F 2.0 °F 1013.1 in West 6.9 mph 6.9 mph 98 % 1.3 in
00:49 2.4 °F 3.0 °F 1013.1 in West 6.9 mph 6.9 mph 98 % 1.3 in
00:54 2.6 °F 3.0 °F 1013.1 in West 6.9 mph 6.9 mph 98 % 0.8 in
00:59 2.7 °F 3.0 °F 1014.1 in West 6.9 mph 6.9 mph 98 % 1.3 in
01:04 2.7 °F 3.0 °F 1014.1 in West 6.9 mph 6.9 mph 98 % 0.8 in
01:09 2.8 °F 3.0 °F 1014.1 in West 6.9 mph 6.9 mph 98 % 0.8 in
01:14 2.8 °F 3.0 °F 1014.1 in West 6.9 mph 6.9 mph 98 % 0.5 in
01:19 2.8 °F 3.0 °F 1014.1 in West 6.9 mph 6.9 mph 98 % 0.5 in
01:25 2.9 °F 3.0 °F 1014.1 in West 6.9 mph 6.9 mph 98 % 0.5 in
01:30 2.9 °F 3.0 °F 1014.1 in West 6.9 mph 6.9 mph 98 % 0.3 in
01:35 2.8 °F 3.0 °F 1014.1 in West 6.9 mph 6.9 mph 98 % 0.3 in
01:40 2.8 °F 3.0 °F 1014.1 in West 6.9 mph 6.9 mph 98 % 0.3 in
01:45 2.8 °F 3.0 °F 1014.1 in West 6.9 mph 6.9 mph 98 % 0.5 in
01:50 2.9 °F 3.0 °F 1014.1 in West 6.9 mph 6.9 mph 98 % 0.5 in
01:55 2.9 °F 3.0 °F 1014.1 in West 6.9 mph 6.9 mph 98 % 0.3 in
02:00 2.9 °F 3.0 °F 1014.1 in West 6.9 mph 6.9 mph 98 % 0.3 in
02:05 2.9 °F 3.0 °F 1014.1 in West 6.9 mph 6.9 mph 98 % 0.3 in
02:10 3.0 °F 3.0 °F 1014.1 in West 6.9 mph 6.9 mph 98 % 0.3 in
02:15 3.0 °F 3.0 °F 1014.1 in West 6.9 mph 6.9 mph 98 % 0.3 in
02:20 3.0 °F 3.0 °F 1014.1 in West 6.9 mph 6.9 mph 98 % 0.3 in
02:25 3.0 °F 3.0 °F 1014.1 in West 6.9 mph 6.9 mph 97 % 0.3 in
02:30 3.0 °F 3.0 °F 1014.1 in West 6.9 mph 6.9 mph 97 % 0.3 in
02:35 3.0 °F 3.0 °F 1014.1 in West 6.9 mph 6.9 mph 97 % 0.3 in
02:40 3.0 °F 3.0 °F 1014.1 in West 6.9 mph 6.9 mph 97 % 0.3 in
02:45 3.0 °F 3.0 °F 1015.1 in West 6.9 mph 6.9 mph 97 % 0.0 in
02:50 3.0 °F 3.0 °F 1015.1 in West 6.9 mph 6.9 mph 97 % 0.0 in
02:55 3.0 °F 3.0 °F 1015.1 in West 6.9 mph 6.9 mph 97 % 0.0 in
03:01 3.0 °F 3.0 °F 1015.1 in West 6.9 mph 6.9 mph 96 % 0.0 in
03:06 3.0 °F 3.0 °F 1015.1 in West 6.9 mph 6.9 mph 96 % 0.0 in
03:11 3.1 °F 3.0 °F 1015.1 in West 6.9 mph 6.9 mph 96 % 0.0 in
03:16 3.1 °F 3.0 °F 1015.1 in West 6.9 mph 6.9 mph 96 % 0.0 in
03:21 3.0 °F 3.0 °F 1015.1 in West 6.9 mph 6.9 mph 95 % 0.0 in
03:26 3.0 °F 3.0 °F 1015.1 in West 6.9 mph 6.9 mph 95 % 0.0 in
03:31 3.0 °F 3.0 °F 1015.1 in West 6.9 mph 6.9 mph 95 % 0.0 in
03:36 3.1 °F 3.0 °F 1015.1 in West 6.9 mph 6.9 mph 95 % 0.3 in
03:41 3.1 °F 3.0 °F 1015.1 in West 6.9 mph 6.9 mph 95 % 0.3 in
03:46 3.1 °F 2.0 °F 1015.1 in West 6.9 mph 6.9 mph 94 % 0.3 in
03:51 3.1 °F 2.0 °F 1015.1 in West 6.9 mph 6.9 mph 94 % 0.3 in
03:56 3.1 °F 2.0 °F 1015.1 in West 6.9 mph 6.9 mph 94 % 0.3 in
04:01 3.1 °F 2.0 °F 1015.1 in West 6.9 mph 6.9 mph 94 % 0.3 in
04:06 3.1 °F 2.0 °F 1015.1 in West 6.9 mph 6.9 mph 93 % 0.3 in
04:11 3.0 °F 2.0 °F 1015.1 in West 6.9 mph 6.9 mph 92 % 0.3 in
04:16 2.8 °F 2.0 °F 1015.1 in West 6.9 mph 6.9 mph 92 % 0.3 in
04:21 2.7 °F 2.0 °F 1015.1 in WNW 4.3 mph 4.3 mph 92 % 0.3 in
04:26 2.6 °F 2.0 °F 1015.1 in WNW 4.3 mph 4.3 mph 92 % 0.3 in
04:31 2.5 °F 2.0 °F 1015.1 in West 6.4 mph 6.4 mph 92 % 0.3 in
04:36 2.4 °F 1.0 °F 1015.1 in Calm   6.4 mph 92 % 0.0 in
04:41 2.4 °F 2.0 °F 1015.1 in Calm   4.0 mph 93 % 0.0 in
04:46 2.3 °F 2.0 °F 1015.1 in West 6.1 mph 6.1 mph 93 % 0.0 in
04:51 2.3 °F 2.0 °F 1015.1 in West 6.1 mph 6.1 mph 93 % 0.0 in
04:56 2.2 °F 1.0 °F 1015.1 in West 4.3 mph 6.1 mph 93 % 0.0 in
05:01 2.1 °F 1.0 °F 1015.1 in West 5.0 mph 6.1 mph 93 % 0.0 in
05:06 2.1 °F 1.0 °F 1015.1 in WNW 5.0 mph 5.0 mph 93 % 0.0 in
05:11 2.0 °F 1.0 °F 1015.1 in WSW 5.5 mph 5.5 mph 93 % 0.0 in
05:16 2.0 °F 1.0 °F 1015.1 in West 4.7 mph 5.5 mph 93 % 0.0 in
05:21 1.9 °F 1.0 °F 1015.1 in West 4.7 mph 5.5 mph 94 % 0.0 in
05:26 1.9 °F 1.0 °F 1015.1 in West 5.5 mph 5.5 mph 94 % 0.0 in
05:31 1.8 °F 1.0 °F 1015.1 in West 2.1 mph 7.9 mph 94 % 0.0 in
05:36 1.7 °F 1.0 °F 1015.1 in West 4.0 mph 7.9 mph 94 % 0.0 in
05:41 1.6 °F 1.0 °F 1015.1 in West 4.3 mph 6.9 mph 94 % 0.0 in
05:46 1.4 °F 1.0 °F 1015.1 in SSW 3.5 mph 5.8 mph 93 % 0.0 in
05:52 1.3 °F 1.0 °F 1015.1 in Calm   4.3 mph 93 % 0.0 in
05:57 1.1 °F 0.0 °F 1015.1 in West 6.9 mph 6.9 mph 93 % 0.0 in
06:02 1.1 °F 0.0 °F 1015.1 in West 8.7 mph 8.7 mph 93 % 0.0 in
06:07 1.0 °F 0.0 °F 1015.1 in West 6.1 mph 10.1 mph 94 % 0.0 in
06:12 1.0 °F 0.0 °F 1015.1 in Calm   10.1 mph 94 % 0.0 in
06:17 0.9 °F 0.0 °F 1015.1 in Calm   6.9 mph 94 % 0.0 in
06:22 0.8 °F 0.0 °F 1015.1 in West 4.0 mph 6.9 mph 94 % 0.0 in
06:27 0.6 °F 0.0 °F 1015.1 in Calm   6.4 mph 94 % 0.0 in
06:28 0.6 °F 0.0 °F 1015.1 in Calm   6.4 mph 94 % 0.0 in
06:33 0.4 °F 0.0 °F 1015.1 in Calm   4.0 mph 94 % 0.0 in
06:38 0.4 °F 0.0 °F 1015.1 in Calm     94 % 0.0 in
06:43 0.3 °F 0.0 °F 1015.1 in Calm     94 % 0.0 in
06:48 0.3 °F 0.0 °F 1015.1 in Calm     95 % 0.0 in
06:53 0.3 °F 0.0 °F 1015.1 in Calm     95 % 0.0 in
06:58 0.3 °F 0.0 °F 1015.1 in Calm     95 % 0.0 in
07:03 0.3 °F 0.0 °F 1015.1 in Calm     96 % 0.0 in
07:08 0.3 °F 0.0 °F 1015.1 in Calm     96 % 0.0 in
07:13 0.3 °F 0.0 °F 1015.1 in Calm     96 % 0.0 in
07:18 0.2 °F 0.0 °F 1015.1 in West 5.8 mph 5.8 mph 96 % 0.0 in
07:23 0.2 °F 0.0 °F 1015.1 in West 7.6 mph 7.6 mph 96 % 0.0 in
07:28 0.2 °F 0.0 °F 1015.1 in WSW 7.2 mph 7.6 mph 97 % 0.0 in
07:33 0.2 °F 0.0 °F 1015.1 in Calm   7.6 mph 97 % 0.0 in
07:38 0.1 °F 0.0 °F 1015.1 in West 2.6 mph 7.2 mph 97 % 0.0 in
07:43 0.1 °F 0.0 °F 1016.1 in West 2.6 mph 2.6 mph 97 % 0.0 in
07:48 0.0 °F -1.0 °F 1016.1 in Calm   2.6 mph 97 % 0.0 in
07:53 0.0 °F -1.0 °F 1016.1 in Calm   2.6 mph 97 % 0.0 in
07:58 0.0 °F -1.0 °F 1016.1 in Calm     97 % 0.0 in
08:04 -0.1 °F -1.0 °F 1016.1 in Calm     97 % 0.0 in
08:09 -0.1 °F -1.0 °F 1016.1 in Calm     97 % 0.0 in
08:14 -0.1 °F -1.0 °F 1016.8 in Calm     97 % 0.0 in
08:19 -0.1 °F -1.0 °F 1016.8 in Calm     97 % 0.0 in
08:24 -0.1 °F -1.0 °F 1016.8 in Calm     97 % 0.0 in
08:29 -0.1 °F -1.0 °F 1016.8 in Calm     97 % 0.0 in
08:34 -0.1 °F -1.0 °F 1016.8 in Calm     97 % 0.0 in
08:39 -0.1 °F -1.0 °F 1016.8 in Calm     98 % 0.0 in
08:44 0.0 °F -1.0 °F 1016.8 in Calm     98 % 0.0 in
08:49 0.2 °F 0.0 °F 1016.8 in Calm     98 % 0.0 in
08:51 0.2 °F 0.0 °F 1016.8 in Calm     98 % 0.0 in
08:56 0.3 °F 1.0 °F 1016.8 in Calm     98 % 0.0 in
09:01 0.4 °F 1.0 °F 1016.8 in Calm     98 % 0.0 in
09:06 0.4 °F 1.0 °F 1016.8 in Calm     98 % 0.0 in
09:11 0.5 °F 1.0 °F 1016.8 in Calm     98 % 0.0 in
09:16 0.6 °F 1.0 °F 1016.8 in Calm     98 % 0.0 in
09:21 0.7 °F 1.0 °F 1016.8 in Calm     98 % 0.0 in
09:26 1.0 °F 1.0 °F 1016.8 in Calm     98 % 0.0 in
09:31 1.1 °F 1.0 °F 1016.8 in Calm     98 % 0.0 in
09:36 1.3 °F 1.0 °F 1016.8 in Calm     98 % 0.0 in
09:41 1.5 °F 2.0 °F 1016.8 in Calm     98 % 0.0 in
09:46 1.6 °F 2.0 °F 1016.8 in Calm     98 % 0.0 in
09:51 1.8 °F 2.0 °F 1016.8 in Calm     98 % 0.0 in
09:56 2.0 °F 2.0 °F 1016.8 in Calm     98 % 0.0 in
10:01 2.1 °F 2.0 °F 1018.2 in Calm     98 % 0.0 in
10:06 2.3 °F 2.0 °F 1018.2 in Calm     97 % 0.0 in
10:11 2.4 °F 2.0 °F 1018.2 in Calm     97 % 0.0 in
10:16 2.7 °F 3.0 °F 1016.8 in Calm     97 % 0.0 in
10:22 2.8 °F 3.0 °F 1016.8 in Calm     96 % 0.0 in
10:27 3.0 °F 3.0 °F 1016.8 in Calm     95 % 0.0 in
10:32 3.3 °F 3.0 °F 1016.1 in Calm     95 % 0.0 in
10:37 3.6 °F 3.0 °F 1016.1 in Calm     95 % 0.0 in
10:42 3.8 °F 3.0 °F 1016.1 in Calm     94 % 0.0 in
10:47 4.0 °F 3.0 °F 1016.8 in Calm     92 % 0.0 in
10:52 4.2 °F 3.0 °F 1016.8 in Calm     90 % 0.0 in
10:57 4.4 °F 3.0 °F 1016.8 in Calm     89 % 0.0 in
11:02 4.5 °F 3.0 °F 1016.8 in Calm     88 % 0.0 in
11:07 4.7 °F 3.0 °F 1016.8 in Calm     87 % 0.0 in
11:12 4.8 °F 3.0 °F 1016.8 in Calm     87 % 0.0 in
11:17 5.0 °F 3.0 °F 1016.8 in Calm     86 % 0.0 in
11:22 5.3 °F 3.0 °F 1016.8 in Calm     86 % 0.0 in
11:27 5.4 °F 3.0 °F 1016.8 in Calm     85 % 0.0 in
11:32 5.5 °F 3.0 °F 1016.8 in Calm     84 % 0.0 in
11:37 5.7 °F 3.0 °F 1016.8 in Calm     82 % 0.0 in
11:42 5.7 °F 3.0 °F 1016.8 in Calm     82 % 0.0 in
11:47 6.0 °F 3.0 °F 1016.8 in Calm     79 % 0.3 in
11:52 6.0 °F 3.0 °F 1016.8 in Calm     77 % 0.3 in
11:57 6.1 °F 2.0 °F 1016.8 in Calm     76 % 0.3 in
12:02 6.3 °F 3.0 °F 1016.8 in Calm     75 % 0.3 in
12:07 6.4 °F 2.0 °F 1016.8 in Calm     74 % 0.3 in
12:12 6.5 °F 2.0 °F 1016.8 in Calm     73 % 0.3 in
12:17 6.7 °F 3.0 °F 1016.1 in Calm     74 % 0.3 in
12:22 6.8 °F 2.0 °F 1016.1 in Calm     73 % 0.3 in
12:27 6.9 °F 3.0 °F 1016.1 in Calm     72 % 0.3 in
12:32 7.1 °F 2.0 °F 1016.1 in Calm     71 % 0.3 in
12:37 7.1 °F 2.0 °F 1016.1 in Calm     69 % 0.3 in
12:43 7.3 °F 2.0 °F 1016.1 in Calm     68 % 0.3 in
12:48 7.5 °F 2.0 °F 1015.1 in Calm     67 % 0.0 in
12:53 7.7 °F 2.0 °F 1015.1 in Calm     68 % 0.0 in
12:58 7.6 °F 2.0 °F 1015.1 in Calm     67 % 0.0 in
13:03 7.7 °F 2.0 °F 1015.1 in West 8.7 mph 8.7 mph 65 % 0.0 in
13:08 7.4 °F 1.0 °F 1015.1 in West 8.7 mph 8.7 mph 63 % 0.3 in
13:13 7.3 °F 1.0 °F 1015.1 in West 8.7 mph 8.7 mph 64 % 0.3 in
13:18 7.5 °F 2.0 °F 1015.1 in West 8.7 mph 8.7 mph 67 % 0.3 in
13:23 7.8 °F 2.0 °F 1015.1 in West 8.7 mph 8.7 mph 67 % 0.3 in
13:28 7.7 °F 1.0 °F 1015.1 in West 8.7 mph 8.7 mph 63 % 0.3 in
13:33 7.8 °F 1.0 °F 1015.1 in West 8.7 mph 8.7 mph 63 % 0.3 in
13:38 7.9 °F 2.0 °F 1015.1 in West 8.7 mph 8.7 mph 64 % 0.3 in
13:43 7.8 °F 1.0 °F 1015.1 in West 8.7 mph 8.7 mph 62 % 0.3 in
13:49 7.7 °F 1.0 °F 1015.1 in WSW 14.0 mph 14.0 mph 63 % 0.3 in
13:54 7.6 °F 2.0 °F 1015.1 in WSW 14.3 mph 16.6 mph 65 % 0.3 in
13:59 7.9 °F 2.0 °F 1015.1 in WSW 14.3 mph 16.6 mph 64 % 0.8 in
14:04 7.7 °F 1.0 °F 1015.1 in WSW 14.3 mph 14.3 mph 62 % 0.8 in
14:09 7.8 °F 1.0 °F 1015.1 in WSW 14.3 mph 14.3 mph 63 % 0.3 in
14:14 7.7 °F 1.0 °F 1015.1 in WSW 14.3 mph 14.3 mph 63 % 0.3 in
14:19 7.8 °F 1.0 °F 1015.1 in WSW 14.3 mph 14.3 mph 63 % 0.3 in
14:24 7.8 °F 1.0 °F 1015.1 in WSW 14.3 mph 14.3 mph 64 % 0.3 in
14:29 7.6 °F 1.0 °F 1014.1 in WSW 14.3 mph 14.3 mph 63 % 0.3 in
14:34 7.7 °F 2.0 °F 1014.1 in WSW 14.3 mph 14.3 mph 65 % 0.3 in
14:39 7.5 °F 2.0 °F 1014.1 in WSW 14.3 mph 14.3 mph 65 % 0.3 in
14:44 7.3 °F 1.0 °F 1015.1 in WSW 14.3 mph 14.3 mph 65 % 0.3 in
14:49 7.1 °F 1.0 °F 1015.1 in WSW 14.3 mph 14.3 mph 65 % 0.3 in
14:54 7.0 °F 1.0 °F 1015.1 in WSW 14.3 mph 14.3 mph 66 % 0.3 in
14:59 6.8 °F 1.0 °F 1014.1 in WSW 14.3 mph 14.3 mph 66 % 0.0 in
15:04 6.8 °F 1.0 °F 1014.1 in WSW 12.2 mph 12.2 mph 67 % 0.3 in
15:09 7.2 °F 1.0 °F 1014.1 in WSW 12.2 mph 12.2 mph 66 % 0.3 in
15:14 7.2 °F 2.0 °F 1014.1 in WSW 12.2 mph 12.2 mph 67 % 0.3 in
15:19 7.1 °F 1.0 °F 1014.1 in WSW 12.2 mph 12.2 mph 67 % 0.3 in
15:24 7.3 °F 1.0 °F 1014.1 in WSW 12.2 mph 12.2 mph 66 % 0.3 in
15:29 7.2 °F 1.0 °F 1014.1 in WSW 12.2 mph 12.2 mph 66 % 0.3 in
15:34 7.0 °F 1.0 °F 1014.1 in WSW 12.2 mph 12.2 mph 65 % 0.3 in
15:40 6.8 °F 1.0 °F 1014.1 in SW 12.6 mph 12.6 mph 67 % 0.3 in
15:45 6.8 °F 1.0 °F 1014.1 in SW 12.6 mph 12.6 mph 67 % 0.3 in
15:50 6.9 °F 1.0 °F 1014.1 in SW 12.6 mph 12.6 mph 67 % 0.3 in
15:55 7.2 °F 1.0 °F 1014.1 in SW 12.6 mph 12.6 mph 66 % 0.3 in
16:00 7.1 °F 1.0 °F 1014.1 in SW 12.6 mph 12.6 mph 64 % 0.3 in
16:05 6.9 °F 1.0 °F 1014.1 in SW 12.6 mph 12.6 mph 65 % 0.0 in
16:10 6.7 °F 1.0 °F 1014.1 in SW 12.6 mph 12.6 mph 64 % 0.0 in
16:15 6.6 °F 1.0 °F 1013.1 in SW 12.6 mph 12.6 mph 65 % 0.0 in
16:20 6.6 °F 1.0 °F 1013.1 in SW 12.6 mph 12.6 mph 64 % 0.0 in
16:25 6.6 °F 1.0 °F 1013.1 in SW 12.6 mph 12.6 mph 65 % 0.0 in
16:30 6.4 °F 1.0 °F 1013.1 in SW 12.6 mph 12.6 mph 67 % 0.0 in
16:35 6.2 °F 1.0 °F 1013.1 in SW 12.6 mph 12.6 mph 68 % 0.0 in
16:40 6.1 °F 0.0 °F 1013.1 in SW 12.6 mph 12.6 mph 66 % 0.0 in
16:45 6.0 °F 1.0 °F 1013.1 in SW 12.6 mph 12.6 mph 67 % 0.0 in
16:50 5.8 °F 1.0 °F 1013.1 in SW 12.6 mph 12.6 mph 68 % 0.0 in
16:55 5.8 °F 1.0 °F 1013.1 in SW 12.6 mph 12.6 mph 69 % 0.0 in
17:00 5.7 °F 1.0 °F 1013.1 in SW 12.6 mph 12.6 mph 70 % 0.0 in
17:05 5.6 °F 1.0 °F 1013.1 in SW 12.6 mph 12.6 mph 71 % 0.0 in
17:10 5.5 °F 1.0 °F 1013.1 in SW 12.6 mph 12.6 mph 71 % 0.0 in
17:15 5.4 °F 1.0 °F 1013.1 in SW 12.6 mph 12.6 mph 71 % 0.0 in
17:20 5.4 °F 1.0 °F 1013.1 in SW 12.6 mph 12.6 mph 71 % 0.0 in
17:25 5.3 °F 1.0 °F 1013.1 in SW 12.6 mph 12.6 mph 72 % 0.0 in
17:30 5.2 °F 1.0 °F 1012.1 in SW 12.6 mph 12.6 mph 72 % 0.0 in
17:35 5.1 °F 1.0 °F 1012.1 in SW 12.6 mph 12.6 mph 72 % 0.0 in
17:40 5.1 °F 1.0 °F 1012.1 in SW 12.6 mph 12.6 mph 72 % 0.0 in
17:45 5.1 °F 1.0 °F 1012.1 in SW 12.6 mph 12.6 mph 72 % 0.0 in
17:51 5.0 °F 1.0 °F 1012.1 in SW 12.6 mph 12.6 mph 73 % 0.0 in
17:56 5.0 °F 1.0 °F 1012.1 in SW 12.6 mph 12.6 mph 73 % 0.0 in
18:01 4.9 °F 1.0 °F 1011.1 in SW 12.6 mph 12.6 mph 74 % 0.0 in
18:06 4.8 °F 1.0 °F 1011.1 in SW 12.6 mph 12.6 mph 75 % 0.0 in
18:11 4.7 °F 1.0 °F 1011.1 in SW 12.6 mph 12.6 mph 75 % 0.0 in
18:16 4.7 °F 1.0 °F 1011.1 in SW 12.6 mph 12.6 mph 75 % 0.0 in
18:21 4.6 °F 1.0 °F 1011.1 in SW 12.6 mph 12.6 mph 75 % 0.0 in
18:26 4.6 °F 1.0 °F 1011.1 in SW 12.6 mph 12.6 mph 76 % 0.0 in
18:31 4.5 °F 1.0 °F 1011.1 in SW 12.6 mph 12.6 mph 76 % 0.0 in
18:36 4.4 °F 1.0 °F 1011.1 in SW 12.6 mph 12.6 mph 76 % 0.0 in
18:41 4.4 °F 1.0 °F 1011.1 in SW 12.6 mph 12.6 mph 76 % 0.0 in
18:46 4.4 °F 1.0 °F 1011.1 in SW 12.6 mph 12.6 mph 76 % 0.0 in
18:51 4.3 °F 1.0 °F 1011.1 in SW 12.6 mph 12.6 mph 76 % 0.0 in
18:56 4.3 °F 1.0 °F 1011.1 in SW 12.6 mph 12.6 mph 76 % 0.0 in
19:01 4.3 °F 1.0 °F 1011.1 in SW 12.6 mph 12.6 mph 76 % 0.0 in
19:06 4.2 °F 1.0 °F 1011.1 in SW 12.6 mph 12.6 mph 77 % 0.0 in
19:11 4.1 °F 1.0 °F 1011.1 in SW 12.6 mph 12.6 mph 77 % 0.0 in
19:16 4.1 °F 1.0 °F 1011.1 in SW 12.6 mph 12.6 mph 77 % 0.0 in
19:21 4.0 °F 1.0 °F 1011.1 in SW 12.6 mph 12.6 mph 78 % 0.0 in
19:26 3.9 °F 1.0 °F 1011.1 in SW 12.6 mph 12.6 mph 80 % 0.0 in
19:31 3.8 °F 1.0 °F 1010.0 in SW 12.6 mph 12.6 mph 80 % 0.0 in
19:36 3.8 °F 1.0 °F 1010.0 in SW 12.6 mph 12.6 mph 80 % 0.0 in
19:41 3.8 °F 1.0 °F 1010.0 in SW 12.6 mph 12.6 mph 80 % 0.0 in
19:46 3.8 °F 1.0 °F 1010.0 in SW 12.6 mph 12.6 mph 80 % 0.0 in
19:51 3.8 °F 1.0 °F 1010.0 in SW 12.6 mph 12.6 mph 81 % 0.0 in
19:56 3.8 °F 1.0 °F 1010.0 in SW 12.6 mph 12.6 mph 82 % 0.0 in
20:01 3.8 °F 1.0 °F 1009.0 in SW 12.6 mph 12.6 mph 83 % 0.0 in
20:06 3.8 °F 1.0 °F 1009.0 in SW 12.6 mph 12.6 mph 84 % 0.0 in
20:11 3.8 °F 1.0 °F 1009.0 in SW 12.6 mph 12.6 mph 84 % 0.0 in
20:16 3.8 °F 2.0 °F 1009.0 in SW 12.6 mph 12.6 mph 85 % 0.0 in
20:22 3.8 °F 2.0 °F 1009.0 in SW 12.6 mph 12.6 mph 85 % 0.0 in
20:27 3.8 °F 2.0 °F 1009.0 in SW 12.6 mph 12.6 mph 85 % 0.0 in
20:32 3.8 °F 2.0 °F 1009.0 in SW 12.6 mph 12.6 mph 85 % 0.0 in
20:37 3.7 °F 2.0 °F 1009.0 in SW 12.6 mph 12.6 mph 85 % 0.0 in
20:42 3.7 °F 2.0 °F 1009.0 in SW 12.6 mph 12.6 mph 86 % 0.0 in
20:47 3.6 °F 2.0 °F 1008.0 in SW 12.6 mph 12.6 mph 86 % 0.0 in
20:52 3.6 °F 2.0 °F 1008.0 in SW 12.6 mph 12.6 mph 87 % 0.0 in
20:57 3.5 °F 2.0 °F 1008.0 in SW 12.6 mph 12.6 mph 88 % 0.0 in
21:02 3.5 °F 2.0 °F 1009.0 in SW 12.6 mph 12.6 mph 89 % 0.0 in
21:07 3.4 °F 2.0 °F 1009.0 in SW 12.6 mph 12.6 mph 90 % 0.3 in
21:12 3.4 °F 2.0 °F 1009.0 in SSW 16.9 mph 16.9 mph 91 % 0.3 in
21:17 3.3 °F 2.0 °F 1008.0 in SSW 19.5 mph 19.5 mph 92 % 0.3 in
21:22 3.3 °F 3.0 °F 1008.0 in SSW 19.5 mph 19.5 mph 93 % 0.5 in
21:27 3.3 °F 3.0 °F 1008.0 in SW 17.7 mph 19.5 mph 93 % 0.5 in
21:32 3.3 °F 3.0 °F 1008.0 in SSW 13.0 mph 19.5 mph 94 % 0.5 in
21:37 3.2 °F 3.0 °F 1008.0 in South 10.5 mph 20.6 mph 94 % 0.8 in
21:42 3.3 °F 3.0 °F 1008.0 in South 18.3 mph 20.6 mph 95 % 0.8 in
21:47 3.3 °F 3.0 °F 1007.0 in South 18.3 mph 18.3 mph 95 % 0.8 in
21:52 3.3 °F 3.0 °F 1007.0 in South 18.3 mph 18.3 mph 96 % 1.3 in
21:57 3.2 °F 3.0 °F 1007.0 in South 18.3 mph 18.3 mph 96 % 1.5 in
22:02 3.2 °F 3.0 °F 1007.0 in South 18.3 mph 18.3 mph 97 % 1.5 in
22:07 3.2 °F 3.0 °F 1007.0 in South 18.3 mph 18.3 mph 97 % 1.3 in
22:13 3.2 °F 3.0 °F 1007.0 in South 18.3 mph 18.3 mph 97 % 1.5 in
22:18 3.2 °F 3.0 °F 1007.0 in South 18.3 mph 18.3 mph 97 % 1.5 in
22:23 3.2 °F 3.0 °F 1007.0 in SW 21.2 mph 21.2 mph 98 % 1.3 in
22:28 3.2 °F 3.0 °F 1007.0 in SSW 28.5 mph 28.5 mph 98 % 1.3 in
22:33 3.1 °F 3.0 °F 1007.0 in SSW 19.5 mph 28.5 mph 98 % 0.8 in
22:34 3.1 °F 3.0 °F 1007.0 in SSW 28.5 mph 28.5 mph 98 % 0.8 in
22:39 3.1 °F 3.0 °F 1007.0 in SSW 21.9 mph 28.5 mph 98 % 0.8 in
22:44 3.1 °F 3.0 °F 1006.0 in South 15.8 mph 32.0 mph 98 % 1.3 in
22:49 3.1 °F 3.0 °F 1006.0 in South 15.8 mph 32.0 mph 98 % 1.0 in
22:54 3.1 °F 3.0 °F 1006.0 in South 15.8 mph 32.0 mph 98 % 1.0 in
22:59 3.1 °F 3.0 °F 1006.0 in South 15.8 mph 15.8 mph 98 % 0.8 in
23:04 3.1 °F 3.0 °F 1006.0 in South 15.8 mph 15.8 mph 98 % 0.8 in
23:09 3.1 °F 3.0 °F 1006.0 in South 15.8 mph 15.8 mph 98 % 0.8 in
23:14 3.1 °F 3.0 °F 1005.0 in South 15.8 mph 15.8 mph 98 % 0.3 in
23:19 3.1 °F 3.0 °F 1005.0 in South 15.8 mph 15.8 mph 98 % 0.3 in
23:24 3.1 °F 3.0 °F 1005.0 in South 15.8 mph 15.8 mph 98 % 0.3 in
23:29 3.1 °F 3.0 °F 1005.0 in South 15.8 mph 15.8 mph 98 % 0.3 in
23:34 3.1 °F 3.0 °F 1005.0 in South 15.8 mph 15.8 mph 98 % 0.3 in
23:39 3.2 °F 3.0 °F 1005.0 in South 15.8 mph 15.8 mph 98 % 0.3 in
23:44 3.2 °F 3.0 °F 1005.0 in South 15.8 mph 15.8 mph 98 % 0.0 in
23:49 3.2 °F 3.0 °F 1005.0 in South 15.8 mph 15.8 mph 98 % 0.0 in
23:54 3.2 °F 3.0 °F 1005.0 in South 15.8 mph 15.8 mph 98 % 0.0 in
Le Gheer Warneton
Courtoisie de Weather Underground - 2.25 mb

Mise a jour : 24/02/2018 15:15:11
Généré par Cumulus 1.9.4 (1099)